Location: Newark
(39.6867°N, 100.6772°W)
Time: 21:26:29
(UTC+00:00)

ISS - Pass Details

Date: 24 September 2019
Orbit: 411 x 421 km, 51.6° (Epoch: 13 October)

Event Time Altitude Azimuth Distance (km) Brightness Sun altitude
Rises 02:18:55 0° 277° (W) 2,339 1.6 -19.9°
Reaches altitude 10° 02:21:33 10° 299° (WNW) 1,478 0.2 -20.4°
Maximum altitude 02:23:45 17° 341° (NNW) 1,149 -1.1 -20.8°
Enters shadow 02:25:20 13° 14° (NNE) 1,328 -1.2 -21.1°
